www.pogodaiklimat.ru

Погода и климат >> Архив погоды >> Мексика >> Chetumal


ПОГОДА в Chetumal

  • Прогноз погоды в Chetumal
  • Монитор погоды в Chetumal
  • Климат города

АРХИВ ПОГОДЫ в Chetumal

Время (UTC), дата Ветер
(напр.,м/с)
 
Видим.   Явления Облачность Т
(С)
Тd
(С)
f
(%)
Тe
(С)
Тes
(С)
Комфортность P
(гПа)
Po
(гПа)
Тmin
(С)
Tmax
(С)
R
(мм)
R24
(мм)
S
(см)
15 9.10 З 1 10 км 5/1 600 м
[Sc diur, vesp Ci sp]
+29.1 +25.6 81 +43 +52 опасность
перегрева
1008.4 1007.4
18 9.10 В 2 10 км 3/3 600 м
[Cu med, cong]
+33.6 +26.5 66 +50 +63 опасность
перегрева
1007.2 1006.2 +22.5 +33.6
21 9.10 ЮВ 3 10 км 8/3 600 м
[Sc diur, vesp Cs]
+32.5 +26.8 72 +50 +54 опасность
перегрева
1005.4 1004.4
00 10.10 ЮВ 2 10 км 6/1 600 м
[Sc diur, vesp Cs]
+30.3 +27.0 83 +48 +48 опасность
перегрева
1006.1 1005.1 +22.5 +34.2
03 10.10 ЮВ 3 8000 м 5/3 600 м
[Sc diur, vesp Ci fib]
+29.3 +26.2 83 +44 +44 опасность
перегрева
1008.6 1007.6
06 10.10 ЮВ 3 8000 м 8/5 600 м
[Sc diur, vesp Ci fib]
+28.6 +26.7 89 +44 +44 опасность
перегрева
1009.1 1008.1 +34.2
12 10.10 ЮВ 1 10 км 9/9 600 м
[Sc diur, vesp]
+28.0 +26.3 91 +43 +43 опасность
перегрева
1007.7 1006.7 +26.4 +34.2
15 10.10 В 2 10 км 4/1 600 м
[Sc diur, vesp Ci fib]
+31.9 +26.8 74 +49 +57 опасность
перегрева
1009.3 1008.3
18 10.10 В 2 10 км 6/3 600 м
[Sc diur, vesp Ac trans]
+33.8 +26.5 66 +51 +60 опасность
перегрева
1009.3 1008.3 +26.4 +34.4
21 10.10 В 4 10 км 4/1 600 м
[Sc diur, vesp Ci fib]
+33.4 +25.4 63 +48 +52 опасность
перегрева
1007.0 1006.0
00 11.10 В 3 10 км 9/9 600 м
[Sc diur, vesp]
+31.1 +26.3 76 +47 +47 опасность
перегрева
1008.3 1007.3 +26.4 +34.4
03 11.10 З 1 8000 м гроза без осадков 10/10 600 м
[Frnb]
+27.1 +24.8 87 +39 +39 очень
душно
1011.2 1010.2
06 11.10 З 1 8000 м 8/6 600 м
[Sc diur, vesp Cs]
+25.8 +24.7 94 +37 +37 очень
душно
1011.1 1010.1 +34.4
09 11.10 З 1 8000 м 3/1 600 м
[Sc diur, vesp Ci fib]
+24.7 +24.1 96 +34 +34 очень
душно
1010.6 1009.6
12 11.10 З 1 10 км 6/5 600 м
[Sc Ci fib]
+24.6 +24.0 96 +34 +34 очень
душно
1011.7 1010.7 +22.9 +34.4
15 11.10 СЗ 2 10 км 8/5 600 м
[Sc diur, vesp Ac trans]
+28.2 +25.1 83 +41 +44 опасность
перегрева
1012.6 1011.6
18 11.10 СЗ 1 10 км 9/8 600 м
[Sc diur, vesp Ac trans]
+33.7 +26.4 66 +50 +53 опасность
перегрева
1011.4 1010.4 +22.9 +34.1
21 11.10 ЮВ 2 10 км 8/4 600 м
[Sc diur, vesp Ci fib]
+31.2 +25.7 73 +46 +50 опасность
перегрева
1009.9 1008.9
00 12.10 З 1 10 км 9/4 600 м
[Sc diur, vesp Ac trans]
+27.2 +25.5 90 +40 +40 очень
душно
1009.8 1008.8 0.1
03 12.10 ЮВ 2 8000 м 8/4 600 м
[Sc diur, vesp Ac trans]
+28.5 +25.7 85 +42 +42 опасность
перегрева
1012.3 1011.3
06 12.10 ЮВ 3 8000 м в посл. час гроза 10/6 600 м
[Sc Ac trans]
+28.8 +25.8 84 +43 +43 опасность
перегрева
1011.6 1010.6 +34.1
12 12.10 СЗ 1 10 км 9/9 600 м
[Frnb]
+24.9 +24.5 98 +35 +35 очень
душно
1012.1 1011.1 1
15 12.10 С 2 10 км 4/1 600 м
[Sc diur, vesp Ac trans]
+29.6 +26.2 82 +45 +51 опасность
перегрева
1013.0 1012.0 0.1
18 12.10 ЮВ 3 10 км 8/6 600 м
[Sc diur, vesp Ci fib]
+32.6 +25.3 66 +47 +52 опасность
перегрева
1011.8 1010.8 0.1
21 12.10 ЮВ 3 10 км 9/4 600 м
[Sc diur, vesp Cs]
+30.9 +26.2 76 +47 +50 опасность
перегрева
1009.0 1008.0
00 13.10 ЮВ 3 10 км 5/4 600 м
[Cu med, cong Ci fib]
+29.8 +26.5 83 +46 +46 опасность
перегрева
1009.4 1008.4 +23.1 +33.3
03 13.10 ЮВ 3 10 км 5/4 600 м
[Cu med, cong Ci fib]
+29.8 +26.5 83 +46 +46 опасность
перегрева
1009.4 1008.4 +23.1 +33.3
12 13.10 С 1 10 км слабый дождь 9/9 600 м
[Sc diur, vesp]
+24.6 +24.5 99 +34 +34 очень
душно
1011.0 1010.0 13
15 13.10 В 1 10 км 8/6 600 м
[Sc diur, vesp Ci fib]
+28.3 +26.1 88 +43 +46 опасность
перегрева
1012.3 1011.3 0.2
18 13.10 В 3 10 км 5/4 600 м
[Sc diur, vesp Ci fib]
+32.4 +26.7 72 +50 +58 опасность
перегрева
1011.0 1010.0 0.2
21 13.10 ЮВ 2 10 км 6/4 600 м
[Sc diur, vesp Ci fib]
+32.9 +25.9 67 +49 +53 опасность
перегрева
1009.0 1008.0
00 14.10 ЮВ 2 10 км 4/1 600 м
[Sc diur, vesp Ci fib]
+29.7 +25.3 77 +43 +43 опасность
перегрева
1009.2 1008.2 +23.0 +32.9
03 14.10 ЮВ 3 8000 м 8/6 600 м
[Sc diur, vesp Ci fib]
+28.8 +25.3 81 +42 +42 опасность
перегрева
1012.1 1011.1
06 14.10 ЮВ 2 8000 м 3/1 600 м
[Sc diur, vesp Ci fib]
+28.1 +24.8 82 +40 +40 очень
душно
1011.6 1010.6 +23.0 +32.9
12 14.10 В 2 10 км 6/6 600 м
[Sc diur, vesp]
+26.9 +24.9 89 +39 +39 очень
душно
1011.3 1010.3 +25.1 +32.9
15 14.10 В 3 10 км 4/4 600 м
[Sc diur, vesp]
+31.0 +24.7 69 +44 +48 опасность
перегрева
1013.1 1012.1
18 14.10 ЮВ 3 10 км 3/3 600 м
[Sc diur, vesp]
+33.2 +25.6 64 +48 +58 опасность
перегрева
1012.1 1011.1 +25.1 +33.2
21 14.10 ЮВ 3 10 км 8/8 600 м
[Sc diur, vesp]
+33.3 +24.3 59 +45 +47 опасность
перегрева
1010.0 1009.0
00 15.10 В 3 10 км 8/6 600 м
[Sc diur, vesp Ci fib]
+29.6 +25.1 77 +43 +43 опасность
перегрева
1010.8 1009.8 +25.1 +33.4
12 15.10 В 2 10 км 5/3 600 м
[Sc diur, vesp Ci fib]
+26.9 +25.5 92 +39 +39 очень
душно
1011.6 1010.6 +25.0 +33.4
15 15.10 В 3 10 км 6/4 600 м
[Sc diur, vesp Ci fib]
+31.4 +26.4 75 +48 +52 опасность
перегрева
1013.0 1012.0
18 15.10 В 4 10 км 5/4 600 м
[Sc diur, vesp Ci fib]
+32.4 +26.3 70 +49 +55 опасность
перегрева
1011.8 1010.8 +25.0 +33.2
21 15.10 СВ 5 10 км 3/1 600 м
[Sc diur, vesp Ci fib]
+33.5 +24.9 61 +47 +50 опасность
перегрева
1009.8 1008.8
00 16.10 СВ 3 10 км 5/3 600 м
[Sc diur, vesp Ci fib]
+29.8 +24.5 73 +42 +42 опасность
перегрева
1010.6 1009.6 +25.0 +34.0
03 16.10 СВ 3 8000 м {гроза} 9/8 600 м
[Sc diur, vesp Ci fib]
+27.8 +24.9 84 +40 +40 очень
душно
1011.6 1010.6
06 16.10 СВ 2 8000 м {гроза} 9/9 600 м
[Sc diur, vesp]
+26.8 +25.2 91 +39 +39 очень
душно
1010.8 1009.8 +25.0 +34.0

 

Местоположение метеостанции Chetumal (Мексика): широта 18.48 долгота -88.30 высота над уровнем моря 7 м.

В архиве по умолчанию представлена погода в Chetumal за последнюю неделю. Архивные данные за месяц целиком и за предыдущие месяцы, начиная с января 2011 года, Вы можете получить, выбрав интересующий диапазон дат из раскрывающегося списка и нажав кнопку "Ввод!".


*Определитесь, кто Вы:
робот инопланетянин человек

Внимание! Время в таблицах - всемирное. Для получения местного времени необходимо прибавить поправку, которая в Chetumal равна -6 ч.

Смотрите также архив погоды в соседних городах и на ближайших метеорологических станциях:

Погода в Belize (Белиз) (106 км)
Погода в Felipe Carrillo Puerto (Мексика) (142 км)
Погода в Flores (Гватемала) (241 км)
Погода в Valladolid (Мексика) (245 км)
Погода в Campeche (Мексика) (281 км)
Погода в Roatan (Гондурас) (306 км)
Погода в Puerto Barrios (Гватемала) (309 км)
Погода в Merida (Мексика) (312 км)
Погода в Merida 2 (Мексика) (316 км)
Погода в Tela (Гондурас) (319 км)

Пояснения к столбцам:

Ветер - указаны скорость ветра в м/с - средняя за 10 мин, порывы в срок и между сроками (в фигурных скобках) и направление, откуда дует ветер: С - северный, СВ - северо-восточный, В - восточный, ЮВ - юго-восточный, Ю - южный, ЮЗ - юго-западный, З - западный, СЗ - северо-западный.
Видимость - горизонтальная дальность видимости в метрах или километрах. При видимости от 1 до 10 км при отсутствии осадков обычно наблюдается дымка, при ухудшении видимости до 1 км и менее - туман. В сухую погоду видимость может ухудшаться дымом, пылью или мглою.
Явления - указаны атмосферные явления, наблюдавшиеся в срок или в последний час перед сроком; фигурными скобками обозначены явления, наблюдавшиеся между сроками (за 1-3 часа до срока); квадратными скобками обозначены град или гололедные отложения с указанием их диаметра в мм.
Облачность - указаны через наклонную черту общая и нижняя облачность в баллах и высота нижней границы облаков в метрах; квадратными скобками обозначены формы облаков: Ci - перистые, Cs - перисто-слоистые, Cc - перисто-кучевые, Ac - высококучевые, As - высокослоистые, Sc - слоисто-кучевые, Ns - слоисто-дождевые, Cu - кучевые, Cb - кучево-дождевые. Подробнее классификацию облаков см. в Атласе облаков (PDF).
T - Температура воздуха - температура, измеренная на высоте 2 м над землей.
Td - Температура точки росы - температура, при понижении до которой содержащийся в воздухе водяной пар достигнет насыщения.
f - Относительная влажность воздуха - влажноcть воздуха, измеренная на высоте 2 м над землей.
Te - Эффективная температура - температура, которую ощущает одетый по сезону человек в тени. Характеристика душности погоды. При расчете учитывается влияние влажности воздуха и скорости ветра на теплоощущения человека.
Tes - Эффективная температура на солнце - температура, которую ощущает человек, с поправкой на солнечный нагрев. Характеристика знойности погоды. Зависит от высоты солнца над горизонтом, облачности и скорости ветра. Ночью, в пасмурную погоду, а также при ветре 12 м/с и более поправка равна нулю.
P - Атмосферное давление - приведенное к уровню моря атмосферное давление.
Po - Атмосферное давление - измеренное на уровне метеостанции атмосферное давление.
Tmin - Минимальная температура - минимум температуры воздуха на высоте 2 м над землей.
Tmax - Максимальная температура - максимум температуры воздуха на высоте 2 м над землей.
R - Количество осадков - Количество выпавших осадков за период времени, мм. При наведении курсора мыши на число - период времени, за который выпало указанное количество осадков.
R24 - Количество осадков - Количество выпавших осадков за 24 часа, мм.
S - Снежный покров - Высота снежного покрова, см. При наведении курсора мыши на число - состояние снежного покрова и степень покрытия местности в баллах.